Regional Weather Roundup
Issued by NWS

Home | Current Version | Previous Version | Text Only | Print | Product List | Glossary Off
Versions: 1 2 3 4 5 6 7 8 9 10 11 12 13 14 15 16 17 18 19 20 21 22 23 24 25 26 27 28 29 30 31 32 33 34 35 36 37 38 39 40 41 42 43 44 45 46 47 48 49 50

000
ASUS43 KOAX 160402
RWRNE

WEATHER ROUNDUP FOR NEBRASKA
NATIONAL WEATHER SERVICE OMAHA NE
1100 PM CDT TUE APR 15 2014

NOTES: SATELLITE DATA IS BEING USED TO AUGMENT CLOUD COVER ABOVE
       12000 FEET.
       "FAIR" INDICATES FEW OR NO CLOUDS BELOW 12,000 FEET WITH NO
       SIGNIFICANT WEATHER AND/OR OBSTRUCTIONS TO VISIBILITY.

  * THESE STATIONS DO NOT REPORT WEATHER SUCH AS RAIN...SNOW OR FOG.

NEZ001>004-019>022-054>056-160500-
NEBRASKA PANHANDLE

CITY           SKY/WX    TMP DP  RH WIND       PRES   REMARKS
SCOTTSBLUFF    CLOUDY    60  23  24 W20G28    29.61S
ALLIANCE       CLOUDY    53  28  38 SW12      29.60S
CHADRON        CLOUDY    57  31  37 W10       29.56S
KIMBALL        CLOUDY    47  27  45 SW3       29.65F
SIDNEY         CLOUDY    48  32  53 SW9       29.65F
$$

NEZ057>060-069>072-079>082-160500-
SOUTHWEST NEBRASKA

CITY           SKY/WX    TMP DP  RH WIND       PRES   REMARKS
NORTH PLATTE   PTCLDY    51  25  36 S14       29.64F
IMPERIAL       PTCLDY    50  25  37 S13       29.67F
LEXINGTON      PTCLDY    52  29  41 S18G25    29.68F
MCCOOK         CLEAR     50  28  42 S13       29.69F
OGALLALA       MOCLDY    52  27  37 SW12G20   29.64F
$$

NEZ005>010-023>029-035>040-094-160500-
NORTH CENTRAL NEBRASKA

CITY           SKY/WX    TMP DP  RH WIND       PRES   REMARKS
VALENTINE      CLOUDY    53  27  36 S3        29.56F
AINSWORTH      CLOUDY    53  30  41 S12       29.58F
BROKEN BOW     MOCLDY    50  29  44 S13       29.66F
O`NEILL        MOCLDY    51  28  40 SE13      29.64F
ORD            MOCLDY    52  29  41 S15       29.66F
THEDFORD       CLOUDY    55  23  28 S7        29.61F
$$

NEZ041-046>049-061>064-073>077-083>087-160500-
SOUTH CENTRAL NEBRASKA

CITY           SKY/WX    TMP DP  RH WIND       PRES   REMARKS
GRAND ISLAND   PTCLDY    51  27  39 S18       29.73F
HASTINGS       CLEAR     51  26  37 S13       29.75S
HEBRON         PTCLDY    54  18  25 S20       29.82S
HOLDREGE       PTCLDY    48  30  49 S12G18    29.72F
KEARNEY *      CLEAR     50  28  43 S22       29.72F
YORK           PTCLDY    50  25  37 S21G29    29.77F
$$

NEZ011>018-030>034-042>045-160500-
NORTHEAST NEBRASKA

CITY           SKY/WX    TMP DP  RH WIND       PRES   REMARKS
NORFOLK        PTCLDY    47  27  45 SE15      29.72F
ALBION         MOCLDY    49  29  46 S12       29.70F
COLUMBUS *     PTCLDY    48  27  43 S16       29.76F
TEKAMAH        PTCLDY    44  30  57 SE18      29.83F
$$

NEZ050>053-065>068-078-088>093-160500-
SOUTHEAST NEBRASKA

CITY           SKY/WX    TMP DP  RH WIND       PRES   REMARKS
LINCOLN        CLEAR     51  24  34 S17       29.82F
OMAHA EPPLEY   PTCLDY    46  30  53 SE21      29.86F
BEATRICE       PTCLDY    52  22  31 S15       29.85S
FALLS CITY     CLOUDY    48  31  51 S20G29    29.92F
$$

NEZ044-045-051>053-067-160500-
OMAHA AREA

CITY           SKY/WX    TMP DP  RH WIND       PRES   REMARKS
OMAHA EPPLEY   PTCLDY    46  30  53 SE21      29.86F
OFFUTT AFB     PTCLDY    46  31  55 SE16      29.88S
$$



USA.gov is the U.S. government's official web portal to all federal, state and local government web resources and services.